Location: Vihti�l�
(61.3833°N, 23.0667°E)
Time: 05:19:08
(UTC+00:00)

Cosmos 2227 Rocket - Pass Details

Date: 29 November 2020
Orbit: 837 x 847 km, 71.0° (Epoch: 22 January)

Event Time Altitude Azimuth Distance (km) Brightness Sun altitude
Exits shadow 05:39:29 12° 301° (WNW) 2,335 3.8 -9.4°
Maximum altitude 05:44:05 31° 1° (N) 1,435 3.2 -9.0°
Drops below altitude 10° 05:49:08 10° 63° (ENE) 2,475 5.1 -8.4°
Sets 05:51:52 0° 74° (ENE) 3,412 6.1 -8.2°
